Location: Biharia
(46.4333°N, 22.8000°E)
Time: 22:11:40
(UTC+00:00)

Cosmos 724 - Pass Details

Date: 16 October 2021
Orbit: 857 x 938 km, 65.6° (Epoch: 29 November)

Event Time Altitude Azimuth Distance (km) Brightness Sun altitude
Rises 17:33:07 0° 324° (NW) 3,539 8.1 -20.2°
Reaches altitude 10° 17:35:40 10° 326° (NW) 2,582 7.3 -20.6°
Maximum altitude 17:41:40 79° 54° (NE) 905 4.2 -21.6°
Enters shadow 17:43:56 40° 134° (SE) 1,283 4.7 -22.0°
